Location: Alquines
(50.7411°N, 1.9932°E)
Time: 13:09:53
(UTC+00:00)

Daily predictions for brighter satellites

Satellite Brightness Start Highest point End
(mag) Time Altitude Azimuth Time Altitude Azimuth Time Altitude Azimuth
NOSS 3-1 (C) 4.1 17:02:58 10° NW 17:10:15 85° NE 17:18:51 10° SE
NOAA 11 4.2 17:05:29 10° SSE 17:10:58 74° ENE 17:16:28 10° NNW
AQUARIUS 4.2 17:07:15 10° SSE 17:11:45 82° ENE 17:16:16 10° NNW
COSMO-SKYMED 1 3.7 17:09:24 10° NE 17:12:54 23° E 17:16:23 10° SE
BREEZE-M DEB (TANK) 1.8 17:11:55 10° W 17:14:26 70° S 17:16:41 10° E
Aureole 3 2.7 17:13:06 10° N 17:16:12 57° ENE 17:19:07 10° SSE
Cosmos 1937 Rocket 4.4 17:12:09 10° SSE 17:16:40 29° E 17:21:12 10° NE
Okean 1-7 Rocket 3.6 17:14:06 10° S 17:18:38 75° E 17:23:14 10° NNE
USA 290 3.2 17:17:23 10° N 17:20:07 25° NE 17:22:50 10° ESE
Cosmos 1833 Rocket 2.9 17:18:24 10° NNW 17:23:52 48° NE 17:29:17 10° SE
NOSS 2-1 (C) 3.5 17:20:51 10° SSW 17:24:00 40° SE 17:27:17 10° NE
H-2A R/B 2.8 17:25:04 10° ESE 17:29:29 30° ENE 17:34:01 10° N
NOSS 2-1 (D) 3.3 17:26:42 10° SSW 17:29:54 46° SE 17:33:06 11° NE
Cosmos 2344 4.3 17:21:06 10° NW 17:29:57 73° NE 17:42:14 10° SE
Meteor 1-21 Rocket 4.2 17:24:50 10° S 17:30:17 62° E 17:35:50 10° NNE
H-2A R/B 2.0 17:25:57 10° NNE 17:30:23 74° ESE 17:34:40 10° S
Cosmos 1939 Rocket 2.8 17:27:28 10° SSE 17:31:31 65° ENE 17:35:30 10° N
USA 229 DEB 3.9 17:24:30 10° NW 17:31:47 85° NE 17:39:28 10° SE
USA 229 3.9 17:24:37 10° NW 17:31:52 84° NE 17:39:34 10° SE
Helios 1A Rocket 4.2 17:28:52 10° ESE 17:32:01 21° ENE 17:35:12 10° NNE
Cosmos 389 Rocket 4.5 17:31:06 10° NE 17:32:01 11° NE 17:32:01 11° NE
CZ-3B R/B 1.6 17:31:14 10° WNW 17:33:31 87° SSW 17:39:23 10° ESE
Cosmos 44 3.4 17:29:08 10° SSW 17:33:58 75° SE 17:39:10 10° NE
SeaSat 1 3.2 17:29:33 10° NNE 17:34:21 51° NW 17:39:08 10° SW
Cosmos 1602 Rocket 3.9 17:30:19 10° SSE 17:34:28 44° E 17:38:40 10° NNE
Cosmos 2026 Rocket 4.4 17:30:10 10° SSE 17:35:52 41° E 17:41:41 10° NNE
Cosmos 2112 Rocket 4.1 17:31:24 10° NNW 17:36:40 81° WSW 17:41:51 10° SSE
Feng Yun 1-1 Rocket 4.2 17:31:29 10° SSE 17:36:56 66° ENE 17:42:34 10° NNW
SJ 16-02 1.8 17:32:58 10° SSW 17:37:20 65° WNW 17:41:44 10° NNE
Cosmos 1689 Rocket 4.2 17:41:34 12° ESE 17:41:34 12° ESE 17:42:09 10° ESE
Cosmos 1553 Rocket 4.5 17:34:51 10° N 17:40:49 38° ENE 17:46:38 10° SE
Cosmos 990 Rocket 4.0 17:35:41 10° S 17:40:50 67° ESE 17:46:00 10° NNE
YAOGAN 1 3.2 17:37:05 10° SE 17:40:56 32° ENE 17:44:48 10° N
Aureole 3 Rocket 2.9 17:38:52 10° N 17:41:55 41° ENE 17:45:33 10° SSE
Cosmos 1844 Rocket 3.1 17:36:52 10° SW 17:42:30 66° WNW 17:48:08 10° NNE
H-2A R/B 4.0 17:39:00 10° S 17:42:58 42° W 17:47:07 10° NNW
COSMOS 2406 3.2 17:37:30 10° NNW 17:43:19 71° ENE 17:49:04 10° SE
Cosmos 2082 Rocket 2.6 17:38:12 10° NNW 17:43:37 41° NE 17:48:59 10° ESE
Cosmos 1818 4.1 17:38:45 10° WSW 17:44:06 57° NW 17:49:32 10° NE
Cosmos 1844 4.0 17:40:50 10° SW 17:46:31 74° WNW 17:52:19 10° NNE
NOSS 3-1 (A) 4.1 17:40:04 10° NW 17:47:25 89° NE 17:56:01 10° SE
Cosmos 1703 3.1 17:44:34 10° S 17:48:25 69° E 17:52:19 10° NNE
X-37B 2.5 17:45:50 10° WSW 17:48:33 26° S 17:51:16 10° SE
Cosmos 1825 Rocket 4.4 17:45:53 10° SSE 17:49:37 28° E 17:53:24 10° NNE
IRS-1C Rocket 4.1 17:45:15 10° SSE 17:50:26 63° ENE 17:55:39 10° N
Cosmos 1812 Rocket 3.4 17:46:42 10° N 17:51:07 79° E 17:55:27 10° SSE
ISS -3.7 17:48:17 10° W 17:51:41 75° N 17:53:50 21° E
ATLAS 2AS CENTAUR R/B 4.1 17:47:58 10° WNW 17:54:55 32° N 18:00:54 12° NE
Okean O Rocket 2.9 17:52:06 10° S 17:56:21 45° W 18:00:36 10° NNW
ATLAS 5 CENTAUR R/B 3.5 17:53:41 10° WNW 17:57:11 21° NNW 18:00:57 11° NE
Iridium 4 Rocket 3.5 17:54:01 10° N 17:59:26 61° E 18:04:20 10° SSE
CZ-4 R/B 1.4 17:56:36 10° SSE 18:00:30 53° ENE 18:04:22 10° N
ERS-2 2.8 17:58:38 15° NE 18:01:13 33° E 18:04:32 10° SSE
SKYMED 2 3.5 17:56:55 10° NNE 18:01:15 65° ESE 18:05:34 10° S
Cosmos 2195 Rocket 4.5 17:57:06 10° S 18:03:25 74° E 18:09:44 10° NNE
CSL-04 Rocket 4.1 17:59:58 10° SE 18:05:03 41° ENE 18:10:12 10° N
CZ-4C R/B 3.8 18:02:14 10° WNW 18:07:19 27° N 18:11:46 15° NE
S3M 4.3 18:01:38 10° N 18:07:22 40° ENE 18:13:06 10° SE
Okean-O 2.6 18:03:40 10° SSE 18:08:01 59° ENE 18:12:23 10° N
USA 234 3.7 18:05:52 18° ENE 18:10:40 52° N 18:16:58 10° WNW
Ariane Rocket 4.4 18:11:25 19° NE 18:11:25 19° NE 18:14:42 10° NNE
Cosmos 1428 Rocket 4.5 18:05:08 10° S 18:11:24 71° E 18:17:42 10° NNE
Cosmos 1340 2.7 18:08:12 10° SSW 18:11:57 82° WNW 18:15:44 10° N
Cosmos 1346 Rocket 3.1 18:08:47 10° SSE 18:12:30 42° E 18:15:11 17° NNE
Cosmos 2278 Rocket 2.4 18:07:18 10° S 18:12:44 50° ESE 18:17:11 16° NE
Cosmos 858 Rocket 4.4 18:09:28 10° SSW 18:14:45 78° ESE 18:20:03 10° NNE
Cosmos 1953 Rocket 4.1 18:12:09 10° SSE 18:16:02 33° E 18:17:58 23° NE
CZ-2C R/B 3.4 18:11:06 10° S 18:16:37 78° WSW 18:22:26 10° NNW
SAR-Lupe-4 3.9 18:17:51 29° NE 18:19:12 43° E 18:22:36 10° S
Cosmos 2292 Rocket 4.1 18:16:41 10° SSE 18:20:41 31° E 18:20:41 31° E
Cosmos 405 3.5 18:17:51 10° NNW 18:21:21 59° W 18:24:49 10° S
COSMOS 2455 4.2 18:16:39 10° W 18:22:01 32° NW 18:27:25 10° NNE
Cosmos 44 Rocket 4.3 18:18:47 10° S 18:22:52 27° ESE 18:23:19 26° ESE
NOSS 2-1 (E) 3.3 18:21:48 10° SW 18:25:05 61° NW 18:26:46 28° NNE
TELKOM 3 4.0 18:26:43 10° W 18:28:34 39° SW 18:28:34 39° SW
Cosmos 1869 3.5 18:25:51 10° N 18:29:36 43° ENE 18:30:11 40° E
ARGOS 3.1 18:24:50 10° SSE 18:30:08 65° ENE 18:35:30 10° N
NOSS 2-2 (D) 4.5 18:25:31 10° NW 18:30:22 51° NE 18:33:29 28° E
Meteor 2-19 Rocket 4.4 18:26:05 10° S 18:32:15 78° E 18:38:26 10° NNE
PSLV R/B 3.9 18:28:23 10° NNE 18:32:33 69° ESE 18:36:45 10° S
SAR-Lupe-1 3.9 18:34:04 38° NNE 18:35:17 66° ESE 18:38:52 10° S
Cosmos 1898 Rocket 4.1 18:30:38 10° SW 18:35:47 56° WNW 18:40:57 10° NNE
CZ-4B R/B 2.6 18:33:02 10° N 18:36:11 41° WNW 18:39:15 10° SW
Cosmos 372 Rocket 3.9 18:31:15 10° S 18:36:24 67° ESE 18:39:58 21° NNE
Cosmos 468 4.4 18:31:29 10° NNW 18:36:44 67° ENE 18:41:13 14° SE
Cosmos 1092 Rocket 4.4 18:30:56 10° SSW 18:37:01 63° WNW 18:43:09 10° N
CZ-2C R/B 3.1 18:33:46 18° NE 18:37:29 38° E 18:42:42 10° SSE
Cosmos 494 Rocket 4.1 18:35:38 10° NNW 18:40:40 52° ENE 18:42:29 35° ESE
MOS 1 Rocket 3.6 18:39:49 10° N 18:44:03 59° WNW 18:48:18 10° SSW
Cosmos 2150 Rocket 4.3 18:40:51 10° S 18:45:41 42° ESE 18:45:59 42° E
Cosmos 1048 Rocket 3.8 18:40:35 10° NNW 18:45:45 77° ENE 18:49:36 18° SSE
Cosmos-2242 3.7 18:41:46 10° NNW 18:45:58 55° W 18:50:11 10° S
COSMO-SKYMED 1 3.7 18:45:07 10° N 18:49:16 45° WNW 18:53:24 10° SW
Meteor 1-11 4.4 18:46:44 10° SSW 18:52:24 73° WNW 18:58:02 10° N
Cosmos 1758 Rocket 4.3 18:51:00 10° SSW 18:55:23 54° WNW 18:59:49 10° N
Cosmos 1937 Rocket 4.3 18:53:12 10° SW 18:58:24 51° WNW 19:03:19 11° NNE
SL-08 RB Rocket 3.5 18:59:18 26° SSE 19:01:49 85° ENE 19:06:19 10° NNW
CSL-04 Debris 4.3 18:58:39 10° S 19:04:01 73° WSW 19:09:27 10° NNW
Cosmos 2221 3.7 19:01:16 10° N 19:03:42 31° N 19:03:42 31° N
Helios 1A Rocket 3.8 19:02:52 10° S 19:06:53 49° W 19:10:56 10° NNW
Cosmos 389 Rocket 3.9 19:03:54 10° NNW 19:05:55 31° NNW 19:05:55 31° NNW
Cosmos 1833 Rocket 4.2 19:02:36 10° NW 19:07:39 35° WSW 19:12:41 10° S
H-2A R/B 3.0 19:03:49 10° S 19:08:43 47° W 19:13:47 10° NNW
Cosmos 1125 Rocket 4.2 19:05:18 10° S 19:08:41 37° SSE 19:08:41 37° SSE
Cosmos 1809 Rocket 4.3 19:04:50 10° S 19:10:55 73° E 19:17:05 10° NNE
Cosmos 1689 Rocket 4.5 19:13:25 20° WSW 19:13:25 20° WSW 19:14:34 10° SW
Cosmos 2298 Rocket 3.9 19:07:39 10° SSW 19:12:57 75° ESE 19:13:35 66° ENE
Cosmos 2266 Rocket 3.8 19:08:55 10° S 19:15:06 71° E 19:21:13 10° NNE
SJ 16-02 4.2 19:15:04 10° WNW 19:16:50 12° NW 19:18:37 10° NNW
YAOGAN 1 4.3 19:13:07 10° SSW 19:17:01 32° W 19:20:57 10° NNW
NOSS 2-2 (C) 4.2 19:13:20 10° NW 19:18:32 86° NE 19:20:07 54° SE
X-37B 3.7 19:23:15 10° SW 19:23:54 11° SW 19:23:54 11° SW
In-Cosmos 22 Rocket 4.2 19:19:01 10° SSW 19:24:49 88° WNW 19:29:35 15° NNE
Cosmos 2082 Rocket 3.3 19:22:23 10° NW 19:27:47 44° WSW 19:33:07 10° S
ISS -1.5 19:25:11 10° WNW 19:26:49 26° W 19:26:49 26° W
NOSS 3-4 (A) 4.5 19:24:18 10° NW 19:30:17 35° NNE 19:30:38 35° NNE
NOSS 3-4 (C) 4.5 19:24:24 10° NW 19:30:23 35° NNE 19:30:44 35° NNE
Cosmos 1241 Rocket 4.4 19:26:13 10° SSW 19:32:42 77° SE 19:33:16 71° ENE
ERS-2 4.4 19:33:12 18° NNW 19:34:37 23° WNW 19:37:32 10° WSW
CZ-4 R/B 4.2 19:33:09 10° SW 19:35:50 17° W 19:38:30 10° NW
MetOp-A 4.1 19:37:46 81° WSW 19:37:50 81° WSW 19:43:14 10° NNW
Meteor 2-21 4.4 19:34:37 10° SSW 19:40:44 83° WNW 19:46:56 10° N
ATLAS 5 CENTAUR R/B 3.8 19:39:39 10° NW 19:42:29 21° N 19:42:29 21° N
Cosmos 2315 Rocket 3.9 19:38:57 10° NNW 19:45:13 81° W 19:46:33 57° S
ATLAS 2AS CENTAUR R/B 3.7 19:40:59 10° NW 19:48:00 36° NNE 19:48:21 35° NNE
Meteor 2-14 Rocket 4.5 19:42:40 10° SSW 19:48:45 76° WNW 19:54:53 10° N
Ariane Rocket 4.1 19:51:36 38° NNW 19:51:36 38° NNW 19:54:42 10° NNW
IRS-1A Rocket 4.4 19:51:15 78° WNW 19:51:15 78° WNW 19:56:50 10° NNW
USA 234 3.3 19:53:13 63° NNE 19:53:14 63° NNE 19:59:42 10° WNW
Cosmos 2278 Rocket 3.5 19:51:48 10° WSW 19:57:02 36° NW 19:59:05 28° N
CZ-4C R/B 3.5 19:51:31 10° NW 19:56:57 38° NNE 19:56:57 38° NNE
USA 281 4.0 20:04:50 39° N 20:04:50 39° N 20:09:11 10° NNW
CZ-2C R/B 3.8 20:15:09 25° NNW 20:17:48 41° WNW 20:23:01 10° SW
ATLAS 2AS CENTAUR R/B 4.5 21:32:32 10° NW 21:35:47 28° NW 21:35:47 28° NW
